timestamp,surface_pressure_avg,surface_temp_avg,battery_voltage,lat,long
2020-10-08 00:09:01+00:00,280.223,13.9,12.73,47.84626,-54.09684
2020-10-08 00:19:01+00:00,282.6447,13.9,12.73,47.84626,-54.09684
2020-10-08 00:29:01+00:00,285.5147,13.9,12.73,47.84626,-54.09684
2020-10-08 00:39:01+00:00,292.6414,13.9,12.73,47.84626,-54.09684
2020-10-08 00:49:01+00:00,293.8246,13.9,12.73,47.84626,-54.09684
2020-10-08 00:59:01+00:00,295.3414,13.9,12.73,47.84626,-54.09684
2020-10-08 01:09:01+00:00,301.4297,13.9,12.73,47.84626,-54.09684
2020-10-08 01:19:01+00:00,306.308,13.9,12.73,47.84626,-54.09684
2020-10-08 01:29:01+00:00,303.308,13.89,12.73,47.84626,-54.09684
2020-10-08 01:39:01+00:00,305.7881,13.89,12.73,47.84626,-54.09684
2020-10-08 01:49:01+00:00,313.9746,13.89,12.73,47.84626,-54.09684
2020-10-08 01:59:01+00:00,317.3029,13.89,12.73,47.84626,-54.09684
2020-10-08 02:09:01+00:00,317.9464,13.9,12.73,47.84626,-54.09684
2020-10-08 02:19:01+00:00,325.508,13.9,12.73,47.84626,-54.09684
2020-10-08 02:29:01+00:00,326.2613,13.89,12.73,47.84626,-54.09684
2020-10-08 02:39:01+00:00,321.6497,13.89,12.73,47.84626,-54.09684
2020-10-08 02:49:01+00:00,322.9813,13.89,12.73,47.84626,-54.09684
2020-10-08 02:59:01+00:00,324.6413,13.9,12.73,47.84626,-54.09684
2020-10-08 03:09:01+00:00,322.1097,13.89,12.73,47.84626,-54.09684
2020-10-08 03:19:01+00:00,321.593,13.89,12.73,47.84626,-54.09684
2020-10-08 03:29:01+00:00,326.77299999999997,13.89,12.73,47.84626,-54.09684
2020-10-08 03:39:01+00:00,325.4464,13.89,12.73,47.84626,-54.09684
2020-10-08 03:49:01+00:00,327.2996,13.89,12.73,47.84626,-54.09684
2020-10-08 03:59:01+00:00,330.4097,13.89,12.73,47.84626,-54.09684
2020-10-08 04:09:01+00:00,329.7597,13.89,12.73,47.84626,-54.09684
2020-10-08 04:19:01+00:00,332.0379,13.88,12.73,47.84626,-54.09684
2020-10-08 04:29:01+00:00,328.7463,13.86,12.73,47.84626,-54.09684
2020-10-08 04:39:01+00:00,323.2746,13.85,12.73,47.84626,-54.09684
2020-10-08 04:49:01+00:00,327.653,13.87,12.73,47.84626,-54.09684
2020-10-08 04:59:01+00:00,326.5063,13.87,12.73,47.84626,-54.09684
2020-10-08 05:09:01+00:00,317.3762,13.86,12.73,47.84626,-54.09684
2020-10-08 05:19:01+00:00,308.9913,13.87,12.73,47.84626,-54.09684
2020-10-08 05:29:01+00:00,309.2063,13.87,12.73,47.84626,-54.09684
2020-10-08 05:39:01+00:00,304.5964,13.87,12.73,47.84626,-54.09684
2020-10-08 05:49:01+00:00,294.1364,13.86,12.73,47.84626,-54.09684
2020-10-08 05:59:01+00:00,289.283,13.86,12.73,47.84626,-54.09684
2020-10-08 06:09:01+00:00,294.6397,13.85,12.73,47.84626,-54.09684
2020-10-08 06:19:01+00:00,295.1981,13.84,12.65,47.84626,-54.09684
2020-10-08 06:29:01+00:00,286.7197,13.82,12.65,47.84626,-54.09684
2020-10-08 06:39:01+00:00,279.1964,13.8,12.65,47.84626,-54.09684
2020-10-08 06:49:01+00:00,275.2714,13.81,12.65,47.84626,-54.09684
2020-10-08 06:59:01+00:00,264.1763,13.81,12.65,47.84626,-54.09684
2020-10-08 07:09:01+00:00,249.2464,13.85,12.65,47.84626,-54.09684
2020-10-08 07:19:01+00:00,236.7331,13.86,12.65,47.84626,-54.09684
2020-10-08 07:29:01+00:00,233.3764,13.87,12.65,47.84626,-54.09684
2020-10-08 07:39:01+00:00,228.9881,13.88,12.65,47.84626,-54.09684
2020-10-08 07:49:01+00:00,220.5831,13.88,12.65,47.84626,-54.09684
2020-10-08 07:59:01+00:00,217.0648,13.88,12.65,47.84626,-54.09684
2020-10-08 08:09:01+00:00,222.5548,13.88,12.65,47.84626,-54.09684
2020-10-08 08:19:01+00:00,224.9614,13.88,12.65,47.84626,-54.09684
2020-10-08 08:29:01+00:00,217.9764,13.88,12.65,47.84626,-54.09684
2020-10-08 08:39:01+00:00,215.6431,13.88,12.65,47.84626,-54.09684
2020-10-08 08:49:01+00:00,216.6331,13.88,12.65,47.84626,-54.09684
2020-10-08 08:59:01+00:00,211.3715,13.88,12.65,47.84626,-54.09684
2020-10-08 09:09:01+00:00,212.5315,13.88,12.65,47.84626,-54.09684
2020-10-08 09:19:01+00:00,217.8548,13.88,12.65,47.84626,-54.09684
2020-10-08 09:29:01+00:00,217.5414,13.89,12.65,47.84626,-54.09684
2020-10-08 09:39:01+00:00,220.5864,13.89,12.65,47.84626,-54.09684
2020-10-08 09:49:01+00:00,232.4197,13.89,12.65,47.84626,-54.09684
2020-10-08 09:59:01+00:00,241.2847,13.89,12.65,47.84626,-54.09684
2020-10-08 10:09:01+00:00,240.8614,13.9,12.65,47.84626,-54.09684
2020-10-08 10:19:01+00:00,242.0348,13.9,12.81,47.84626,-54.09684
2020-10-08 10:29:01+00:00,254.8764,13.9,12.81,47.84626,-54.09684
2020-10-08 10:39:01+00:00,259.3097,13.9,12.81,47.84626,-54.09684
2020-10-08 10:49:01+00:00,255.5397,13.9,12.81,47.84626,-54.09684
2020-10-08 10:59:01+00:00,257.6431,13.9,12.81,47.84626,-54.09684
2020-10-08 11:09:01+00:00,263.7881,13.9,12.81,47.84626,-54.09684
2020-10-08 11:19:01+00:00,263.8631,13.9,12.81,47.84626,-54.09684
2020-10-08 11:29:01+00:00,266.5697,13.9,12.81,47.84626,-54.09684
2020-10-08 11:39:01+00:00,278.6481,13.9,12.81,47.84626,-54.09684
2020-10-08 11:49:01+00:00,279.1113,13.9,12.81,47.84626,-54.09684
2020-10-08 11:59:01+00:00,276.3364,13.9,12.81,47.84626,-54.09684
2020-10-08 12:09:01+00:00,287.308,13.9,12.81,47.84626,-54.09684
2020-10-08 12:19:01+00:00,299.7447,13.9,12.81,47.84626,-54.09684
2020-10-08 12:29:01+00:00,298.2313,13.9,12.81,47.84626,-54.09684
2020-10-08 12:39:01+00:00,297.9264,13.9,12.81,47.84626,-54.09684
2020-10-08 12:49:01+00:00,308.063,13.9,12.81,47.84626,-54.09684
2020-10-08 12:59:01+00:00,309.1813,13.9,12.81,47.84626,-54.09684
2020-10-08 13:09:01+00:00,303.1413,13.9,12.81,47.84626,-54.09684
2020-10-08 13:19:01+00:00,312.983,13.9,12.81,47.84626,-54.09684
2020-10-08 13:29:01+00:00,323.1346,13.9,12.81,47.84626,-54.09684
2020-10-08 13:39:01+00:00,324.2081,13.9,12.81,47.84626,-54.09684
2020-10-08 13:49:01+00:00,326.4997,13.9,12.81,47.84626,-54.09684
2020-10-08 13:59:01+00:00,338.9246,13.9,12.81,47.84626,-54.09684
2020-10-08 14:09:01+00:00,343.2113,13.9,12.81,47.84626,-54.09684
2020-10-08 14:19:01+00:00,335.6013,13.9,12.89,47.84626,-54.09684
2020-10-08 14:29:01+00:00,354.5112,13.9,12.89,47.84626,-54.09684
2020-10-08 14:39:01+00:00,364.7947,13.9,12.89,47.84626,-54.09684
2020-10-08 14:49:01+00:00,352.1146,13.9,12.89,47.84626,-54.09684
2020-10-08 14:59:01+00:00,346.6445,13.9,12.89,47.84626,-54.09684
2020-10-08 15:09:01+00:00,361.6129,13.9,12.89,47.84626,-54.09684
2020-10-08 15:19:01+00:00,362.7896,13.9,12.73,47.84626,-54.09684
2020-10-08 15:29:01+00:00,350.4796,13.9,12.73,47.84626,-54.09684
2020-10-08 15:39:01+00:00,363.2762,13.9,12.73,47.84626,-54.09684
2020-10-08 15:49:01+00:00,379.9496,13.9,12.73,47.84626,-54.09684
2020-10-08 15:59:01+00:00,368.9813,13.9,12.73,47.84626,-54.09684
2020-10-08 16:09:01+00:00,355.2096,13.9,12.73,47.84626,-54.09684
2020-10-08 16:19:01+00:00,370.9629,13.9,12.73,47.84626,-54.09684
2020-10-08 16:29:01+00:00,386.1462,13.9,12.73,47.84626,-54.09684
2020-10-08 16:39:01+00:00,366.8528,13.9,12.73,47.84626,-54.09684
2020-10-08 16:49:01+00:00,350.9097,13.9,12.73,47.84626,-54.09684
2020-10-08 16:59:01+00:00,362.8013,13.9,12.73,47.84626,-54.09684
2020-10-08 17:09:01+00:00,363.0046,13.9,12.73,47.84626,-54.09684
2020-10-08 17:19:01+00:00,343.0463,13.9,13.6,47.84626,-54.09684
2020-10-08 17:29:01+00:00,346.0197,13.9,13.6,47.84626,-54.09684
2020-10-08 17:39:01+00:00,352.9596,13.9,13.6,47.84626,-54.09684
2020-10-08 17:49:01+00:00,336.6280000000001,13.9,13.6,47.84626,-54.09684
2020-10-08 17:59:01+00:00,326.8463,13.9,13.6,47.84626,-54.09684
2020-10-08 18:09:01+00:00,332.1229,13.9,13.6,47.84626,-54.09684
2020-10-08 18:19:01+00:00,330.5946,13.9,13.92,47.84626,-54.09684
2020-10-08 18:29:01+00:00,312.293,13.9,13.92,47.84626,-54.09684
2020-10-08 18:39:01+00:00,305.9797,13.91,13.92,47.84626,-54.09684
2020-10-08 18:49:01+00:00,305.9664,13.9,13.92,47.84626,-54.09684
2020-10-08 18:59:01+00:00,295.5681,13.91,13.92,47.84626,-54.09684
2020-10-08 19:09:01+00:00,282.1031,13.9,13.92,47.84626,-54.09684
2020-10-08 19:19:01+00:00,282.2547,13.9,13.92,47.84626,-54.09684
2020-10-08 19:29:01+00:00,277.1214,13.9,13.92,47.84626,-54.09684
2020-10-08 19:39:01+00:00,265.7498,13.9,13.92,47.84626,-54.09684
2020-10-08 19:49:01+00:00,263.6614,13.9,13.92,47.84626,-54.09684
2020-10-08 19:59:01+00:00,262.5314,13.91,13.92,47.84626,-54.09684
2020-10-08 20:09:01+00:00,256.45799999999997,13.92,13.92,47.84626,-54.09684
2020-10-08 20:19:01+00:00,251.2081,13.9,13.44,47.84626,-54.09684
2020-10-08 20:29:01+00:00,252.2281,13.9,13.44,47.84626,-54.09684
2020-10-08 20:39:01+00:00,247.5747,13.9,13.44,47.84626,-54.09684
2020-10-08 20:49:01+00:00,245.4414,13.9,13.44,47.84626,-54.09684
2020-10-08 20:59:01+00:00,247.9497,13.9,13.44,47.84626,-54.09684
2020-10-08 21:09:01+00:00,246.8114,13.9,13.44,47.84626,-54.09684
2020-10-08 21:19:01+00:00,240.6031,13.9,13.05,47.84626,-54.09684
2020-10-08 21:29:01+00:00,244.9197,13.9,13.05,47.84626,-54.09684
2020-10-08 21:39:01+00:00,254.2897,13.9,13.05,47.84626,-54.09684
2020-10-08 21:49:01+00:00,252.3964,13.9,13.05,47.84626,-54.09684
2020-10-08 21:59:01+00:00,249.1364,13.9,13.05,47.84626,-54.09684
2020-10-08 22:09:01+00:00,256.1947,13.9,13.05,47.84626,-54.09684
2020-10-08 22:19:01+00:00,262.3081,13.9,12.81,47.84626,-54.09684
2020-10-08 22:29:01+00:00,261.6314,13.9,12.81,47.84626,-54.09684
2020-10-08 22:39:01+00:00,264.8081,13.9,12.81,47.84626,-54.09684
2020-10-08 22:49:01+00:00,268.5381,13.9,12.81,47.84626,-54.09684
2020-10-08 22:59:01+00:00,269.7447,13.9,12.81,47.84626,-54.09684
2020-10-08 23:09:01+00:00,269.5847,13.9,12.81,47.84626,-54.09684
2020-10-08 23:19:01+00:00,273.9847,13.9,12.81,47.84626,-54.09684
2020-10-08 23:29:01+00:00,274.3897,13.9,12.81,47.84626,-54.09684
2020-10-08 23:39:01+00:00,271.8914,13.9,12.81,47.84626,-54.09684
2020-10-08 23:49:01+00:00,273.4664,13.9,12.81,47.84626,-54.09684
2020-10-08 23:59:01+00:00,276.3214,13.9,12.81,47.84626,-54.09684
